[[{"header":{"parameterUnit":"m.s-1","parameterCategory":1,"la1":30.2991,"la2":30.254,"lo1":-89.0895,"lo2":-89.0444,"dy":0.0017,"dx":0.0017,"nx":28,"ny":28,"refTime":"2025-04-22T09:00:00:Z","depth":0,"parameterNumber":2,"parameterNumberName":"U-component_of_WINDS"},"data":[0,0,0,0,0,0,0,0,0,0,0,0,0,0,0,0,0,0,0,0,0,0,0,0,0,0,0,0,0,0,0,0,0,0,0,0,0,0,0,0,0,0,0,0,0,0,0,0,0,0,0,0,0,0,0,0,0,0,-1.2845,-1.2845,0,-1.2806,-1.2806,-1.2805,-1.2757,-1.2756,-1.2755,-1.2755,-1.2712,-1.2711,-1.2711,0,0,0,0,0,0,0,0,0,0,0,0,0,-1.2877,-1.2877,-1.2845,-1.2845,-1.2844,-1.2806,-1.2806,-1.2805,-1.2757,-1.2756,-1.2755,-1.2754,-1.2712,-1.2712,-1.2711,0,0,0,0,0,0,0,0,0,0,0,0,0,-1.2853,-1.2877,-1.2846,-1.2816,-1.2813,-1.2806,-1.2806,-1.2805,-1.2757,-1.2756,-1.2755,-1.2754,-1.2712,-1.2712,-1.2711,-1.273,0,0,-1.2709,-1.2709,0,0,0,0,0,0,0,0,-1.2855,-1.2852,-1.2821,-1.2818,-1.2815,-1.2785,-1.2801,-1.278,-1.2758,-1.2778,-1.2755,-1.2753,-1.2737,-1.2734,-1.2729,-1.2728,-1.2726,-1.2709,-1.2708,-1.2708,-1.2708,0,0,0,0,0,0,0,-1.2856,-1.2853,-1.283,-1.282,-1.2817,-1.2804,-1.2799,-1.2797,-1.2764,-1.2776,-1.2773,-1.2769,-1.2735,-1.273,-1.2728,-1.2725,-1.2709,-1.2708,-1.2708,-1.2708,-1.2737,-1.2738,0,0,0,0,0,0,-1.2863,-1.2855,-1.2831,-1.2829,-1.2832,-1.2804,-1.2799,-1.2796,-1.2764,-1.2759,-1.277,-1.2767,-1.2732,-1.2729,-1.2726,-1.2746,-1.2708,-1.2708,-1.2707,-1.2736,-1.2738,-1.2739,0,0,0,0,0,0,-1.2863,-1.2861,-1.2833,-1.2841,-1.2836,-1.2805,-1.2802,-1.2796,-1.2791,-1.276,-1.2753,-1.2771,-1.2731,-1.2727,-1.2729,-1.2744,-1.2707,-1.2707,-1.2735,-1.2737,-1.2738,-1.2786,0,0,0,0,0,0,-1.2865,-1.2862,-1.2869,-1.2841,-1.2836,-1.2837,-1.2803,-1.2796,-1.279,-1.2785,-1.2759,-1.2753,-1.273,-1.2731,-1.2729,-1.2743,-1.2706,-1.2733,-1.2736,-1.2738,-1.2783,-1.279,-1.2795,0,0,0,0,0,-1.2866,-1.2883,-1.2869,-1.2867,-1.2844,-1.2838,-1.2835,-1.2808,-1.2791,-1.2798,-1.2778,-1.2754,-1.2743,-1.2731,-1.2729,-1.2743,-1.2732,-1.2735,-1.2737,-1.2781,-1.2788,-1.2795,0,0,0,0,0,0,-1.2911,-1.2879,-1.2863,-1.2872,-1.2858,-1.283,-1.2837,-1.2817,-1.2807,-1.2803,-1.277,-1.2764,-1.277,-1.2757,-1.2744,-1.2759,-1.2734,-1.2736,-1.2768,-1.2775,-1.2781,-1.2783,-1.2706,0,0,0,0,0,-1.2923,-1.2921,-1.2892,-1.2903,-1.2897,-1.2869,-1.2865,-1.2846,-1.283,-1.2823,-1.2804,-1.2788,-1.2782,-1.2778,-1.2769,-1.2782,-1.2775,-1.279,-1.2796,-1.2801,-1.2803,-1.2809,-1.2815,-1.2748,-1.2748,-1.2747,0,0,-1.2946,-1.2928,-1.2928,-1.2912,-1.2899,-1.2897,-1.2864,-1.2863,-1.2862,-1.2823,-1.2824,-1.2809,-1.279,-1.2798,-1.28,-1.2786,-1.282,-1.2804,-1.2808,-1.2807,-1.2812,-1.2818,-1.2824,-1.2749,-1.2749,-1.2749,0,0,-1.2986,-1.2973,-1.298,-1.2969,-1.295,-1.2931,-1.2933,-1.2908,-1.2897,-1.2898,-1.2869,-1.2867,-1.2855,-1.2843,-1.2836,-1.2874,-1.2851,-1.2872,-1.2902,-1.2908,-1.2913,-1.2918,-1.2931,-1.2937,-1.2874,-1.2874,-1.2874,0,-1.3017,-1.3014,-1.2987,-1.2988,-1.2982,-1.2948,-1.2956,-1.2945,-1.2925,-1.2921,-1.2906,-1.2892,-1.2877,-1.2881,-1.2891,-1.2886,-1.2887,-1.2874,-1.2915,-1.2919,-1.2923,-1.2935,-1.2941,-1.2877,-1.2877,-1.2876,-1.2876,0,-1.3052,-1.3051,-1.3059,-1.3042,-1.3036,-1.3041,-1.3014,-1.3012,-1.2994,-1.2976,-1.2978,-1.2959,-1.2947,-1.2946,-1.2928,-1.2948,-1.2941,-1.2921,-1.2895,-1.2932,-1.2944,-1.2948,-1.2881,-1.288,-1.2879,-1.2878,0,0,-1.3119,-1.3088,-1.3091,-1.3083,-1.3061,-1.3059,-1.3062,-1.3051,-1.305,-1.3038,-1.3039,-1.3031,-1.3014,-1.3005,-1.2985,-1.2991,-1.3022,-1.297,-1.2969,-1.298,-1.3044,-1.3058,-1.3064,-1.3008,-1.3008,-1.3009,-1.3045,0,-1.3156,-1.316,-1.3136,-1.3147,-1.3145,-1.3114,-1.3117,-1.3103,-1.3088,-1.3083,-1.3066,-1.3061,-1.3038,-1.3032,-1.3037,-1.3018,-1.3034,-1.3015,-1.3008,-1.3008,-1.3014,-1.307,-1.3085,-1.312,-1.3049,-1.305,-1.3051,0,-1.3199,-1.319,-1.32,-1.3178,-1.3177,-1.318,-1.3168,-1.3165,-1.3149,-1.3138,-1.3129,-1.3107,-1.3108,-1.3084,-1.3085,-1.3073,-1.3069,-1.3059,-1.306,-1.3058,-1.3031,-1.3069,-1.3131,-1.3136,-1.3057,-1.3057,-1.3056,0,-1.3247,-1.3237,-1.3242,-1.3236,-1.3211,-1.3214,-1.3203,-1.3186,-1.3182,-1.3172,-1.3168,-1.3158,-1.3153,-1.3145,-1.3121,-1.3106,-1.3125,-1.3099,-1.3115,-1.3116,-1.312,-1.312,-1.3181,-1.3118,-1.3118,-1.3118,-1.3118,0,-1.3289,-1.3297,-1.3264,-1.3267,-1.3275,-1.3247,-1.3256,-1.3242,-1.3227,-1.3227,-1.3199,-1.3199,-1.3167,-1.3164,-1.3145,-1.3149,-1.3147,-1.3137,-1.3132,-1.3139,-1.314,-1.3136,-1.3132,-1.3119,-1.3119,-1.3119,-1.3119,0,-1.3344,-1.3322,-1.3326,-1.3302,-1.3296,-1.3303,-1.3282,-1.3284,-1.3267,-1.3267,-1.3266,-1.3239,-1.3234,-1.3209,-1.3197,-1.3185,-1.3195,-1.3185,-1.3201,-1.3197,-1.3215,-1.3213,-1.3275,-1.3282,-1.3215,-1.3216,-1.3216,0,-1.3373,-1.3378,-1.3355,-1.3354,-1.3345,-1.3342,-1.3338,-1.3311,-1.3307,-1.3291,-1.3295,-1.3287,-1.328,-1.3273,-1.3252,-1.3243,-1.3233,-1.3255,-1.3231,-1.3239,-1.3233,-1.3233,-1.3233,-1.326,-1.3261,-1.3261,-1.3262,0,-1.3426,-1.3415,-1.341,-1.3402,-1.3397,-1.3389,-1.3379,-1.3379,-1.335,-1.3347,-1.3342,-1.3337,-1.3326,-1.3319,-1.3307,-1.3295,-1.3274,-1.327,-1.3273,-1.3281,-1.329,-1.3285,-1.3214,-1.3268,-1.3268,-1.3267,-1.3267,-1.3267,-1.3468,-1.3472,-1.3456,-1.3452,-1.3442,-1.3434,-1.3435,-1.3419,-1.3414,-1.3404,-1.3388,-1.3385,-1.337,-1.3352,-1.3342,-1.3339,-1.3327,-1.3332,-1.3333,-1.3334,-1.3338,-1.3291,-1.3337,-1.3337,-1.3337,-1.3336,-1.3336,0,-1.352,-1.3509,-1.3505,-1.3493,-1.3489,-1.3471,-1.3459,-1.3457,-1.3455,-1.3443,-1.3437,-1.3432,-1.3425,-1.3405,-1.3396,-1.3398,-1.3388,-1.3396,-1.3395,-1.3393,-1.335,-1.3348,-1.3404,-1.3404,-1.3404,-1.3404,-1.3404,-1.3404,-1.3546,-1.3552,-1.3539,-1.3539,-1.3528,-1.3526,-1.3521,-1.3513,-1.3503,-1.3499,-1.3493,-1.3481,-1.3465,-1.3455,-1.3448,-1.3442,-1.344,-1.3452,-1.3443,-1.3403,-1.3396,-1.339,-1.3388,-1.3452,-1.3452,-1.3487,-1.3487,-1.3488]},{"header":{"parameterUnit":"m.s-1","parameterCategory":1,"la1":30.2991,"la2":30.254,"lo1":-89.0895,"lo2":-89.0444,"dy":0.0017,"dx":0.0017,"nx":28,"ny":28,"refTime":"2025-04-22T09:00:00:Z","depth":0,"parameterNumber":3,"parameterNumberName":"V-component_of_WINDS"},"data":[0,0,0,0,0,0,0,0,0,0,0,0,0,0,0,0,0,0,0,0,0,0,0,0,0,0,0,0,0,0,0,0,0,0,0,0,0,0,0,0,0,0,0,0,0,0,0,0,0,0,0,0,0,0,0,0,0,0,2.2248,2.2248,0,2.2217,2.2217,2.2216,2.2168,2.2168,2.2167,2.2166,2.2135,2.2135,2.2135,0,0,0,0,0,0,0,0,0,0,0,0,0,2.2267,2.2267,2.2248,2.2248,2.2247,2.2217,2.2217,2.2216,2.2169,2.2168,2.2167,2.2166,2.2135,2.2135,2.2135,0,0,0,0,0,0,0,0,0,0,0,0,0,2.225,2.2267,2.2248,2.222,2.2217,2.2217,2.2217,2.2216,2.2169,2.2168,2.2166,2.2165,2.2135,2.2135,2.2134,2.216,0,0,2.2134,2.2134,0,0,0,0,0,0,0,0,2.2251,2.2249,2.2225,2.2222,2.2219,2.2195,2.2212,2.2197,2.2169,2.2187,2.2166,2.2164,2.2156,2.2154,2.2151,2.2158,2.2157,2.2134,2.2134,2.2134,2.2134,0,0,0,0,0,0,0,2.2252,2.225,2.2236,2.2224,2.2221,2.2209,2.2205,2.2209,2.2179,2.2186,2.2182,2.2179,2.2154,2.2151,2.215,2.2156,2.2134,2.2134,2.2134,2.2134,2.2182,2.2183,0,0,0,0,0,0,2.2257,2.2251,2.2237,2.2235,2.2232,2.221,2.2205,2.2204,2.2179,2.2174,2.218,2.2177,2.2152,2.215,2.2149,2.2176,2.2134,2.2134,2.2134,2.2181,2.2183,2.2184,0,0,0,0,0,0,2.2258,2.2256,2.2238,2.2242,2.2239,2.2211,2.221,2.2204,2.2201,2.2175,2.2169,2.2182,2.2151,2.2149,2.2157,2.2174,2.2134,2.2134,2.2179,2.2181,2.2183,2.2231,0,0,0,0,0,0,2.2259,2.2257,2.2266,2.2243,2.2239,2.2247,2.2211,2.2205,2.2201,2.2197,2.2176,2.2171,2.215,2.2157,2.2157,2.2173,2.2134,2.2178,2.218,2.2183,2.2228,2.2234,2.224,0,0,0,0,0,2.2259,2.2281,2.2267,2.2265,2.225,2.2248,2.2246,2.2221,2.2203,2.2212,2.2195,2.2172,2.2173,2.2159,2.2158,2.2174,2.2177,2.218,2.2182,2.2225,2.2233,2.224,0,0,0,0,0,0,2.2307,2.2277,2.2261,2.2276,2.2265,2.224,2.2251,2.223,2.2225,2.2221,2.219,2.2186,2.2198,2.2187,2.2172,2.2197,2.2171,2.2174,2.2204,2.2211,2.2217,2.2219,2.2134,0,0,0,0,0,2.232,2.2321,2.2295,2.231,2.2306,2.2279,2.2278,2.2259,2.2247,2.2242,2.2225,2.2214,2.2212,2.2211,2.2207,2.2226,2.2221,2.2237,2.2243,2.2248,2.2251,2.226,2.2266,2.2194,2.2194,2.2194,0,0,2.2345,2.2329,2.2331,2.2319,2.2309,2.2311,2.2276,2.2279,2.228,2.2242,2.2249,2.2237,2.2222,2.2236,2.2241,2.2227,2.227,2.2252,2.2256,2.2256,2.2263,2.227,2.2276,2.2196,2.2195,2.2195,0,0,2.2392,2.238,2.2391,2.2381,2.2366,2.2348,2.2351,2.2329,2.2319,2.2326,2.2297,2.2298,2.2295,2.2285,2.228,2.2324,2.2302,2.2323,2.2355,2.2364,2.2369,2.2374,2.2389,2.2395,2.2326,2.2326,2.2327,0,2.2425,2.2427,2.24,2.2405,2.24,2.2366,2.2377,2.2369,2.2353,2.2351,2.2336,2.233,2.2318,2.2329,2.2339,2.2337,2.2338,2.2325,2.2371,2.2375,2.238,2.2393,2.2399,2.2329,2.2329,2.2329,2.2328,0,2.2469,2.247,2.2481,2.2466,2.2463,2.2471,2.2445,2.2445,2.2428,2.2412,2.2418,2.2403,2.2395,2.2396,2.2379,2.2404,2.2396,2.2376,2.2349,2.239,2.2402,2.2407,2.2333,2.2332,2.2331,2.2331,0,0,2.2544,2.2514,2.2519,2.2511,2.2491,2.2492,2.2499,2.2491,2.2492,2.2482,2.2486,2.2484,2.2466,2.246,2.2441,2.2449,2.2484,2.2428,2.2427,2.2438,2.251,2.2524,2.2531,2.2469,2.247,2.2471,2.2511,0,2.2586,2.2596,2.2572,2.2587,2.2588,2.2556,2.2561,2.255,2.2535,2.2534,2.2518,2.2517,2.2493,2.2489,2.2495,2.2478,2.2498,2.2475,2.2473,2.2473,2.2477,2.2537,2.2553,2.2591,2.2516,2.2516,2.2517,0,2.2637,2.2629,2.2645,2.2624,2.2623,2.2629,2.262,2.2619,2.2605,2.2594,2.2588,2.2566,2.2571,2.2545,2.2551,2.2537,2.2534,2.2526,2.2527,2.2525,2.2497,2.2537,2.2603,2.2608,2.2525,2.2524,2.2523,0,2.2689,2.2684,2.2692,2.2687,2.2663,2.2667,2.2657,2.2642,2.2639,2.2631,2.2629,2.2622,2.2618,2.2613,2.259,2.2574,2.2598,2.2571,2.2589,2.2589,2.2595,2.2595,2.2661,2.2595,2.2595,2.2595,2.2595,0,2.2739,2.2749,2.2715,2.272,2.2731,2.2703,2.2715,2.2702,2.2689,2.2691,2.2663,2.2665,2.2635,2.2633,2.2615,2.2623,2.2621,2.2612,2.2607,2.2614,2.2615,2.2612,2.2608,2.2596,2.2596,2.2596,2.2595,0,2.2799,2.2776,2.2783,2.276,2.2754,2.2763,2.2743,2.2747,2.2731,2.2733,2.2732,2.2707,2.2704,2.2681,2.2673,2.2661,2.2675,2.2665,2.2679,2.2676,2.2694,2.2693,2.276,2.2767,2.2698,2.2698,2.2699,0,2.2831,2.2838,2.2816,2.2815,2.2807,2.2806,2.2802,2.2776,2.2773,2.2758,2.2764,2.2759,2.2753,2.2751,2.2731,2.2725,2.2714,2.2738,2.2713,2.272,2.2714,2.2713,2.2713,2.2743,2.2744,2.2745,2.2746,0,2.2891,2.2879,2.2875,2.2868,2.2865,2.2857,2.2848,2.2849,2.282,2.2819,2.2816,2.2812,2.2803,2.2799,2.2789,2.2779,2.2757,2.2754,2.2757,2.2764,2.2772,2.2767,2.2693,2.2752,2.2752,2.2751,2.2751,2.275,2.2937,2.2942,2.2927,2.2924,2.2914,2.2906,2.2909,2.2893,2.289,2.2881,2.2866,2.2865,2.285,2.2835,2.2827,2.2825,2.2813,2.2818,2.2819,2.2821,2.2825,2.2773,2.2824,2.2823,2.2823,2.2823,2.2823,0,2.2994,2.2983,2.2981,2.2969,2.2966,2.2947,2.2936,2.2935,2.2934,2.2923,2.2918,2.2915,2.291,2.289,2.2883,2.2886,2.2876,2.2885,2.2884,2.2882,2.2837,2.2834,2.2893,2.2893,2.2893,2.2893,2.2893,2.2893,2.3024,2.3031,2.3018,2.302,2.3008,2.3007,2.3003,2.2995,2.2986,2.2983,2.2979,2.2967,2.2952,2.2944,2.2938,2.2933,2.2931,2.2943,2.2935,2.2892,2.2885,2.2879,2.2876,2.2944,2.2944,2.298,2.298,2.298]}]]